Regional Weather Roundup
Issued by NWS Goodland, KS

Home | Current Version | Previous Version | Graphics & Text | Print | Product List | Glossary On
Versions: 1 2 3 4 5 6 7 8 9 10 11 12 13 14 15 16 17 18 19 20 21 22 23 24 25 26 27 28 29 30 31 32 33 34 35 36 37 38 39 40 41 42 43 44 45 46 47 48 49 50
000
ASUS43 KGLD 262108
RWRGLD

GOODLAND FORECAST AREA HOURLY WEATHER ROUNDUP
NATIONAL WEATHER SERVICE GOODLAND KS
300 PM MDT TUE JUL 26 2016

...OFFICIAL OBSERVATIONS...

CITY           SKY/WX    TMP DP  RH WIND       PRES   REMARKS
GOODLAND KS    SUNNY     90  65  43 S15G24    30.04F
HILL CITY KS   SUNNY     89  66  46 SE12G18   30.01F
IMPERIAL NEB   SUNNY     92  62  36 S14       30.01F
MCCOOK NEB     SUNNY     93  66  40 SE14G24   30.00F
AKRON CO       SUNNY     89  54  30 NW5       30.06F
BURLINGTON CO  SUNNY     90  60  36 S18G24    30.07F
LIMON CO       NOT AVBL
$$

...UNOFFICIAL OBSERVATIONS...

CITY           SKY/WX    TMP DP  RH WIND       PRES   REMARKS
COLBY KS       MOSUNNY   90  72  55 S13G21    30.05F
LENORA KS        N/A     89  32  13 MISG        N/A
NORTON KS      SUNNY     90  54  29 SE13G18   30.01S
SHARON SPRINGS   N/A     90  69  49 S13G20      N/A
KIT CARSON CO    N/A     90  62  39 MISG        N/A
YUMA CO          N/A     90  63  40 S12         N/A
$$



USA.gov is the U.S. government's official web portal to all federal, state and local government web resources and services.